Flag for Italy Weather past 2 weeks in Bologna, Italy

Now
52 °F

Passing clouds.


Feels Like: 47 °F
Forecast: 33 / 47 °F
Wind: 14 mph from East

Location: Bologna / Borgo Panigale

Current Time: Mar 5, 2015 at 5:06:42 PM

Latest Report: Mar 5, 2015 at 4:20 PM


Visibility: N/A

Pressure: 30.09 "Hg

Humidity: 41%

Dew point: 28 °F

Location of BolognaLocation

Historic Weather in Bologna — Graph

°F

Bologna temperature yesterday

Maximum temperature yesterday: 52 °F (at 11:20 AM)
Minimum temperature yesterday: 43 °F (at 1:50 AM)
Average temperature yesterday: 47 °F

Past Weeks' High & Low Weather Summary

 TemperatureHumidityPressure
High57 °F (Feb 21, 11:50 AM)100% (Feb 22, 7:20 AM)30.60 "Hg (Feb 22, 7:20 AM)
Low32 °F (Feb 20, 5:20 AM)35% (Feb 19, 4:20 PM)29.47 "Hg (Feb 22, 3:20 AM)
Average46 °F77%29.97 "Hg
* Reported Feb 18 3:20 PM — Mar 5 3:50 PM, Bologna, Weather by CustomWeather, © 2015

Note: Actual official high and low records may vary slightly from our data, if they occured in-between our weather recording intervals... More about our weather records

Advertising

Bologna weather history for previous 24 hours

 ConditionsComfort  
Time TempWeatherWind HumidityBarometerVisibility
3:50 PM
Thu, Mar 5
52 °FPassing clouds.13 mph38%30.09 "HgN/A
3:20 PM52 °FSunny.15 mph38%30.09 "Hg10 mi
2:50 PM52 °FPassing clouds.15 mph38%30.09 "HgN/A
2:20 PM52 °FPassing clouds.16 mph44%30.09 "HgN/A
1:50 PM52 °FPassing clouds.16 mph41%30.09 "HgN/A
1:20 PM52 °FPassing clouds.17 mph44%30.12 "HgN/A
12:50 PM52 °FPassing clouds.15 mph50%30.12 "HgN/A
12:20 PM50 °FPassing clouds.15 mph47%30.12 "HgN/A
11:50 AM50 °FPassing clouds.16 mph54%30.15 "HgN/A
11:20 AM50 °FPassing clouds.16 mph50%30.15 "HgN/A
10:50 AM50 °FPassing clouds.16 mph50%30.15 "HgN/A
10:20 AM50 °FPassing clouds.14 mph50%30.15 "HgN/A
9:50 AM46 °FPassing clouds.8 mph66%30.15 "HgN/A
9:20 AM46 °FPassing clouds.8 mph62%30.15 "HgN/A
8:50 AM45 °FPassing clouds.8 mph61%30.12 "HgN/A
8:20 AM43 °FPassing clouds.5 mph66%30.12 "HgN/A
7:50 AM43 °FPassing clouds.6 mph66%30.12 "HgN/A
7:20 AM43 °FPassing clouds.7 mph66%30.12 "HgN/A
6:50 AM45 °FPassing clouds.8 mph61%30.12 "HgN/A
6:20 AM45 °FPassing clouds.9 mph61%30.12 "HgN/A
5:50 AM45 °FPassing clouds.9 mph61%30.12 "HgN/A
5:20 AM45 °FPassing clouds.7 mph66%30.12 "HgN/A
4:20 AM46 °FPassing clouds.12 mph57%30.12 "HgN/A
3:50 AM46 °FPartly cloudy.22 mph53%30.09 "HgN/A
2:50 AM45 °FPartly cloudy.10 mph66%30.12 "HgN/A
2:20 AM45 °FPassing clouds.14 mph66%30.12 "HgN/A
1:50 AM43 °FLight rain. Passing clouds.17 mph81%30.12 "HgN/A
1:20 AM43 °FRain. Passing clouds.18 mph81%30.12 "HgN/A
12:50 AM43 °FRain. Passing clouds.23 mph81%30.09 "HgN/A
12:20 AM43 °FRain. Passing clouds.18 mph87%30.09 "HgN/A
11:50 PM
Wed, Mar 4
45 °FRain. Passing clouds.22 mph81%30.07 "HgN/A
11:20 PM46 °FRain. Passing clouds.17 mph87%30.04 "HgN/A
10:20 PM46 °FRain. Passing clouds.8 mph87%30.04 "HgN/A
9:50 PM46 °FRain. Partly cloudy.12 mph87%30.04 "Hg4 mi
9:20 PM46 °FRain. Fog.10 mph93%30.04 "Hg3 mi
8:50 PM46 °FRain. Fog.3 mph93%30.04 "Hg2 mi
8:20 PM46 °FRain. Fog.5 mph93%30.04 "Hg2 mi
7:50 PM48 °FRain. Fog.6 mph87%30.04 "Hg1 mi
7:20 PM48 °FLight rain. Fog.5 mph94%30.04 "Hg1 mi
6:50 PM48 °FLight rain. Fog.6 mph94%30.04 "Hg1 mi
6:20 PM48 °FLight rain. Fog.7 mph94%30.04 "Hg1 mi
5:50 PM48 °FLight rain. Fog.6 mph94%30.04 "Hg1 mi
5:20 PM48 °FLight rain. Fog.6 mph94%30.04 "Hg1 mi
Weather by CustomWeather, © 2015

See weather overviewHow to use our weather pages